Hatteras, NC

1:11 PM EST on December 15, 2019 (GMT -0500)
Mitchell

Weather History for KHSE - August, 2019

Change the Weather History Date:

Sunday, August 25, 2019

  Actual Average Record
Temperature  
Mean Temperature 80 °F 78 °F  
Max Temperature 84 °F 84 °F 90 °F (1968)
Min Temperature 75 °F 73 °F 59 °F (1986)
Degree Days  
Heating Degree Days 0 0  
Month to date heating degree days 0 0  
Since 1 June heating degree days 0 3  
Since 1 July heating degree days 0 0  
Cooling Degree Days 14 13  
Month to date cooling degree days 429 342  
Year to date cooling degree days 1729 1230  
Since 1 June cooling degree days 1347 1087  
Growing Degree Days 30 (Base 50)    
Moisture  
Dew Point 71 °F    
Average Humidity 78    
Maximum Humidity 88    
Minimum Humidity 65    
Precipitation  
Precipitation 0.00 in 0.25 in 3.15 in (1924)
Month to date precipitation 7.02 5.45  
Year to date precipitation 38.74 35.71  
Snow  
Snow 0.00 in - - ()
Month to date snowfall 0.0  
Since 1 July snowfall 0.0  
Snow Depth 0.00 in    
Sea Level Pressure  
Sea Level Pressure 30.01 in    
Wind  
Wind Speed 11 mph ()    
Max Wind Speed 20 mph    
Max Gust Speed 33 mph    
Visibility 10.0 miles    
Events      
T = Trace of Precipitation, MM = Missing Value Source: Averaged Metar Reports

Daily Weather History Graph

Daily Weather History Graph

Search for Another Location

Airport or City:

Astronomy

Aug. 25, 2019 Rise Set
Actual Time 6:29 AM EDT 7:39 PM EDT
Civil Twilight 6:03 AM EDT 8:05 PM EDT
Nautical Twilight 5:31 AM EDT 8:36 PM EDT
Astronomical Twilight 4:59 AM EDT 9:08 PM EDT
Moon 1:09 AM EDT (8/25) 3:50 PM EDT (8/25)
Length of Visible Light 14h 02m
Length of Day
13h 09m
Waning Crescent, 29% of the Moon is Illuminated
Aug 25
Waning Crescent
Aug 30
New
Sep 5
First Quarter
Sep 14
Full
Sep 21
Last Quarter

Hourly Weather History & Observations

Time (EDT) Temp. Heat Index Dew Point Humidity Pressure Visibility Wind Dir Wind Speed Gust Speed Precip Events Conditions
12:51 AM 78.1 °F - 71.1 °F 79% 30.05 in 10.0 mi NE 10.4 mph 20.7 mph 0.00 in   Overcast
1:51 AM 77.0 °F - 73.0 °F 88% 30.03 in 10.0 mi NNE 10.4 mph 23.0 mph N/A   Overcast
2:51 AM 77.0 °F - 73.0 °F 88% 30.01 in 10.0 mi NE 9.2 mph 19.6 mph N/A   Overcast
3:51 AM 77.0 °F - 73.0 °F 88% 30.00 in 10.0 mi NE 9.2 mph 20.7 mph N/A   Overcast
4:51 AM 77.0 °F - 73.0 °F 88% 29.99 in 10.0 mi NE 12.7 mph 19.6 mph N/A   Mostly Cloudy
5:32 AM 77.0 °F - 72.0 °F 84% 29.98 in 10.0 mi NE 12.7 mph 21.9 mph N/A   Mostly Cloudy
5:51 AM 77.0 °F - 72.0 °F 84% 29.99 in 10.0 mi NE 12.7 mph 21.9 mph N/A   Mostly Cloudy
6:02 AM 77.0 °F - 73.0 °F 88% 29.99 in 10.0 mi NE 10.4 mph 21.9 mph N/A   Scattered Clouds
6:51 AM 77.0 °F - 73.0 °F 88% 29.99 in 10.0 mi NE 9.2 mph 17.3 mph N/A   Overcast
7:31 AM 77.0 °F - 73.0 °F 88% 30.00 in 10.0 mi NE 13.8 mph 24.2 mph N/A   Mostly Cloudy
7:35 AM 77.0 °F - 73.0 °F 88% 30.00 in 10.0 mi NE 11.5 mph 21.9 mph N/A   Mostly Cloudy
7:51 AM 78.1 °F - 73.0 °F 84% 30.00 in 10.0 mi NE 13.8 mph 20.7 mph N/A   Mostly Cloudy
8:14 AM 78.1 °F - 73.0 °F 84% 30.01 in 10.0 mi NE 10.4 mph 23.0 mph N/A   Overcast
8:51 AM 78.1 °F - 73.0 °F 84% 30.01 in 10.0 mi NE 11.5 mph 19.6 mph N/A   Overcast
9:11 AM 79.0 °F - 73.0 °F 82% 30.00 in 10.0 mi NE 10.4 mph 25.3 mph N/A   Overcast
9:51 AM 78.1 °F - 72.0 °F 81% 30.01 in 10.0 mi NE 12.7 mph 27.6 mph N/A   Overcast
10:51 AM 79.0 °F - 72.0 °F 79% 30.02 in 10.0 mi NE 12.7 mph 26.5 mph N/A   Overcast
11:51 AM 82.9 °F 88.0 °F 72.0 °F 69% 30.02 in 10.0 mi NE 15.0 mph 25.3 mph N/A   Scattered Clouds
12:51 PM 82.9 °F 87.5 °F 71.1 °F 67% 30.01 in 10.0 mi NNE 15.0 mph 27.6 mph N/A   Partly Cloudy
1:37 PM 80.6 °F 83.9 °F 69.8 °F 70% 30.01 in 10.0 mi NE 16.1 mph 28.8 mph N/A   Overcast
1:51 PM 81.0 °F 84.1 °F 69.1 °F 67% 30.01 in 10.0 mi NE 16.1 mph 29.9 mph N/A   Overcast
2:04 PM 82.9 °F 87.0 °F 70.0 °F 65% 30.02 in 10.0 mi NNE 17.3 mph 28.8 mph N/A   Overcast
2:51 PM 82.9 °F 87.0 °F 70.0 °F 65% 30.01 in 10.0 mi NNE 16.1 mph 32.2 mph N/A   Overcast
3:51 PM 82.9 °F 87.5 °F 71.1 °F 67% 29.99 in 10.0 mi NNE 15.0 mph 29.9 mph N/A   Clear
4:51 PM 82.0 °F 86.3 °F 71.1 °F 69% 29.99 in 10.0 mi NE 11.5 mph 23.0 mph N/A   Scattered Clouds
5:51 PM 81.0 °F 84.4 °F 70.0 °F 69% 30.00 in 10.0 mi NE 15.0 mph 25.3 mph N/A   Mostly Cloudy
6:51 PM 79.0 °F - 70.0 °F 74% 30.00 in 10.0 mi NNE 15.0 mph 26.5 mph N/A   Overcast
7:51 PM 78.1 °F - 70.0 °F 76% 30.01 in 10.0 mi NE 15.0 mph 23.0 mph N/A   Clear
8:51 PM 77.0 °F - 68.0 °F 74% 30.02 in 10.0 mi NE 12.7 mph 24.2 mph N/A   Clear
9:51 PM 77.0 °F - 66.9 °F 71% 30.03 in 10.0 mi NE 11.5 mph 27.6 mph N/A   Clear
10:51 PM 75.9 °F - 64.9 °F 69% 30.04 in 10.0 mi NE 12.7 mph 26.5 mph N/A   Clear
11:51 PM 75.9 °F - 66.0 °F 71% 30.04 in 10.0 mi NE 12.7 mph 20.7 mph N/A   Overcast